12/09/2011,00:00:07,   0.0,  1.5,  160,+14.2,  95.4,    0.2,  +14.9,  +15.6,  +14.6,+1100.00,31
12/09/2011,00:00:33,   0.2,  4.1,  168,+14.2,  95.3,    0.2,  +14.9,  +15.6,  +14.6,+1100.00,38
12/09/2011,00:00:51,   0.2,  6.5,  161,+14.2,  95.4,    0.3,  +14.9,  +15.6,  +14.6,+1100.00,39
12/09/2011,00:01:09,   0.2,  5.6,  196,+14.2,  95.4,    0.4,  +14.9,  +15.7,  +14.6,+1100.00,47
12/09/2011,00:01:27,   0.2,  8.9,  191,+14.2,  95.4,    0.3,  +14.9,  +15.6,  +14.6,+1100.00,46
12/09/2011,00:01:53,   0.2,  3.8,  195,+14.2,  95.4,    0.2,  +14.9,  +15.6,  +14.6,+1100.00,42
12/09/2011,00:02:11,   0.2,  5.0,  177,+14.2,  95.4,    0.1,  +14.8,  +15.6,  +14.6,+1100.00,35
12/09/2011,00:02:29,   0.2,  5.7,  179,+14.2,  95.4,    0.5,  +14.8,  +15.7,  +14.5,+1100.00,4B
12/09/2011,00:02:47,   0.2,  4.8,  174,+14.2,  95.4,    0.2,  +15.0,  +15.5,  +14.7,+1100.00,3C
12/09/2011,00:03:13,   0.2,  5.5,  179,+14.2,  95.4,    0.3,  +14.8,  +15.6,  +14.6,+1100.00,41
12/09/2011,00:03:31,   0.2,  3.6,  231,+14.2,  95.5,    0.3,  +14.9,  +15.7,  +14.6,+1100.00,38
12/09/2011,00:03:49,   0.2,  3.9,  183,+14.2,  95.4,    0.1,  +14.9,  +15.6,  +14.6,+1100.00,46
12/09/2011,00:04:07,   0.2,  4.2,  156,+14.2,  95.4,    0.2,  +14.9,  +15.7,  +14.6,+1100.00,3D
12/09/2011,00:04:33,   0.2,  2.6,  191,+14.2,  95.5,    0.2,  +14.8,  +15.6,  +14.6,+1100.00,3C
12/09/2011,00:04:51,   0.2,  2.9,  173,+14.2,  95.5,    0.3,  +14.9,  +15.6,  +14.7,+1100.00,42
12/09/2011,00:05:09,   0.2,  2.5,  193,+14.1,  95.5,    0.2,  +14.8,  +15.6,  +14.6,+1100.00,40
12/09/2011,00:05:27,   0.2,  3.3,  185,+14.2,  95.5,    0.3,  +14.9,  +15.6,  +14.7,+1100.00,44
12/09/2011,00:05:53,   0.2,  3.2,  231,+14.2,  95.5,    0.1,  +14.8,  +15.6,  +14.6,+1100.00,36
12/09/2011,00:06:11,   0.2,  6.9,  170,+14.2,  95.5,    0.1,  +15.0,  +15.5,  +14.7,+1100.00,36
12/09/2011,00:06:29,   0.2,  4.7,  186,+14.2,  95.5,    0.1,  +14.8,  +15.7,  +14.6,+1100.00,4A
12/09/2011,00:06:54,   0.2,  6.2,  164,+14.2,  95.5,    0.2,  +14.8,  +15.6,  +14.6,+1100.00,41
12/09/2011,00:07:12,   0.2,  4.1,  170,+14.2,  95.5,    0.3,  +14.9,  +15.6,  +14.6,+1100.00,38
12/09/2011,00:07:30,   0.2,  3.6,  202,+14.2,  95.6,    0.3,  +14.9,  +15.7,  +14.7,+1100.00,3B
12/09/2011,00:07:48,   0.2,  2.4,  158,+14.2,  95.6,    0.3,  +14.8,  +15.6,  +14.6,+1100.00,48
12/09/2011,00:08:14,   0.2,  5.8,  150,+14.2,  95.6,    0.2,  +14.9,  +15.6,  +14.7,+1100.00,42
12/09/2011,00:08:32,   0.2,  5.1,  186,+14.2,  95.6,    0.2,  +14.9,  +15.6,  +14.7,+1100.00,44
12/09/2011,00:08:50,   0.2,  5.2,  182,+14.2,  95.6,    0.1,  +14.9,  +15.6,  +14.6,+1100.00,3F
12/09/2011,00:09:08,   0.2,  3.9,  170,+14.1,  95.6,    0.3,  +15.0,  +15.6,  +14.7,+1100.00,3F
12/09/2011,00:09:33,   0.2,  3.8,  152,+14.1,  95.6,    0.1,  +14.9,  +15.5,  +14.7,+1100.00,41
12/09/2011,00:09:51,   0.2,  6.3,  188,+14.2,  95.6,    0.2,  +14.9,  +15.6,  +14.6,+1100.00,4A
12/09/2011,00:10:09,   0.2,  6.8,  141,+14.2,  95.6,    0.3,  +15.0,  +15.6,  +14.7,+1100.00,39
12/09/2011,00:10:27,   0.2,  4.4,   90,+14.2,  95.7,    0.2,  +14.9,  +15.6,  +14.7,+1100.00,2E
12/09/2011,00:10:53,   0.2,  5.0,  190,+14.2,  95.7,    0.1,  +14.9,  +15.6,  +14.7,+1100.00,3A
12/09/2011,00:11:11,   0.2,  4.0,  176,+14.2,  95.7,    0.2,  +15.0,  +15.5,  +14.7,+1100.00,30
12/09/2011,00:11:29,   0.2,  4.7,  168,+14.2,  95.7,    0.3,  +14.9,  +15.6,  +14.6,+1100.00,4A
12/09/2011,00:11:54,   0.2,  3.5,  168,+14.2,  95.7,    0.1,  +14.9,  +15.6,  +14.7,+1100.00,44
12/09/2011,00:12:12,   0.2,  5.3,  188,+14.2,  95.7,    0.3,  +14.9,  +15.6,  +14.7,+1100.00,43
12/09/2011,00:12:30,   0.2,  5.5,  164,+14.2,  95.7,    0.3,  +14.9,  +15.6,  +14.6,+1100.00,3E
12/09/2011,00:12:48,   0.2,  3.6,  182,+14.2,  95.7,    0.1,  +14.9,  +15.6,  +14.7,+1100.00,45
12/09/2011,00:13:14,   0.2,  3.2,  191,+14.2,  95.7,    0.5,  +15.0,  +15.5,  +14.7,+1100.00,36
12/09/2011,00:13:32,   0.2,  5.3,  183,+14.2,  95.8,    0.1,  +15.0,  +15.6,  +14.7,+1100.00,38
12/09/2011,00:13:50,   0.2,  5.1,  181,+14.2,  95.8,    0.1,  +14.8,  +15.7,  +14.6,+1100.00,3B
12/09/2011,00:14:08,   0.2,  3.6,  184,+14.2,  95.8,    0.3,  +15.0,  +15.6,  +14.7,+1100.00,40
12/09/2011,00:14:34,   0.2,  7.4,  194,+14.2,  95.8,    0.1,  +14.9,  +15.6,  +14.7,+1100.00,48
12/09/2011,00:14:52,   0.2,  3.7,  189,+14.2,  95.8,    0.3,  +15.0,  +15.5,  +14.7,+1100.00,44
12/09/2011,00:15:10,   0.2,  6.9,  185,+14.2,  95.8,    0.2,  +14.8,  +15.7,  +14.6,+1100.00,47
12/09/2011,00:15:28,   0.2,  7.3,  184,+14.2,  95.8,    0.1,  +14.9,  +15.6,  +14.7,+1100.00,4A
12/09/2011,00:15:54,   0.2,  3.3,  188,+14.2,  95.9,    0.3,  +14.8,  +15.6,  +14.7,+1100.00,4B
12/09/2011,00:16:12,   0.2,  3.5,  200,+14.2,  95.9,    0.4,  +15.0,  +15.6,  +14.7,+1100.00,33
12/09/2011,00:16:30,   0.2,  4.1,  217,+14.2,  95.9,    0.2,  +14.9,  +15.6,  +14.7,+1100.00,3E
12/09/2011,00:16:48,   0.2,  3.1,  188,+14.2,  95.9,    0.2,  +14.9,  +15.6,  +14.7,+1100.00,4D
12/09/2011,00:17:14,   0.2,  6.0,  178,+14.2,  95.9,    0.3,  +14.9,  +15.6,  +14.7,+1100.00,49
12/09/2011,00:17:32,   0.2,  4.2,  174,+14.2,  95.9,    0.4,  +15.0,  +15.6,  +14.7,+1100.00,3E
12/09/2011,00:17:50,   0.2,  4.4,  182,+14.2,  95.9,    0.2,  +14.9,  +15.6,  +14.6,+1100.00,44
12/09/2011,00:18:08,   0.2,  3.8,  178,+14.2,  95.9,    0.1,  +14.9,  +15.6,  +14.7,+1100.00,50
12/09/2011,00:18:34,   0.2,  3.9,  172,+14.2,  96.0,    0.3,  +14.8,  +15.6,  +14.7,+1100.00,43
12/09/2011,00:18:52,   0.2,  5.5,  207,+14.2,  96.0,    0.5,  +15.0,  +15.6,  +14.7,+1100.00,3B
12/09/2011,00:19:10,   0.2,  3.0,  192,+14.2,  96.0,    0.2,  +14.9,  +15.6,  +14.6,+1100.00,36
12/09/2011,00:19:28,   0.2,  3.6,  180,+14.2,  96.0,    0.2,  +14.8,  +15.7,  +14.6,+1100.00,42
12/09/2011,00:19:54,   0.2,  5.2,  144,+14.2,  96.0,    0.3,  +14.8,  +15.6,  +14.7,+1100.00,40
12/09/2011,00:20:12,   0.2,  5.9,  176,+14.2,  96.0,    0.4,  +14.9,  +15.6,  +14.6,+1100.00,3F
12/09/2011,00:20:30,   0.2,  5.9,  158,+14.3,  96.0,    0.2,  +14.9,  +15.6,  +14.7,+1100.00,3F
12/09/2011,00:20:48,   0.2,  4.9,  205,+14.3,  96.0,    0.2,  +14.8,  +15.6,  +14.6,+1100.00,3E
12/09/2011,00:21:14,   0.2,  4.8,  179,+14.3,  96.0,    0.2,  +14.8,  +15.6,  +14.6,+1100.00,41
12/09/2011,00:21:32,   0.2,  4.4,  198,+14.3,  96.0,    0.4,  +14.9,  +15.6,  +14.6,+1100.00,41
12/09/2011,00:21:50,   0.2,  6.1,  156,+14.2,  96.0,    0.3,  +14.9,  +15.6,  +14.7,+1100.00,39
12/09/2011,00:22:08,   0.2,  3.6,  181,+14.3,  96.0,    0.3,  +14.9,  +15.6,  +14.7,+1100.00,3E
12/09/2011,00:22:34,   0.2,  4.4,  180,+14.2,  96.0,    0.5,  +14.9,  +15.5,  +14.7,+1100.00,3B
12/09/2011,00:22:52,   0.2,  6.0,  183,+14.3,  96.0,    0.3,  +14.8,  +15.7,  +14.7,+1100.00,3C
12/09/2011,00:23:10,   0.2,  8.0,  175,+14.3,  96.1,    0.3,  +14.9,  +15.6,  +14.7,+1100.00,3B
12/09/2011,00:23:27,   0.2,  4.6,  204,+14.3,  96.0,    0.3,  +14.9,  +15.6,  +14.7,+1100.00,3D
12/09/2011,00:23:53,   0.2,  3.1,  173,+14.3,  96.0,    0.5,  +14.9,  +15.6,  +14.7,+1100.00,3D
12/09/2011,00:24:11,   0.2,  8.1,  189,+14.3,  96.1,    0.3,  +14.9,  +15.6,  +14.7,+1100.00,43
12/09/2011,00:24:29,   0.2,  2.8,  170,+14.3,  96.1,    0.3,  +14.9,  +15.7,  +14.6,+1100.00,43
12/09/2011,00:24:47,   0.2,  5.4,  187,+14.3,  96.0,    0.3,  +14.8,  +15.7,  +14.6,+1100.00,48
12/09/2011,00:25:13,   0.2,  5.2,  198,+14.3,  96.1,    0.2,  +14.9,  +15.6,  +14.7,+1100.00,43
12/09/2011,00:25:31,   0.2,  4.3,  192,+14.3,  96.1,    0.3,  +15.0,  +15.6,  +14.7,+1100.00,36
12/09/2011,00:25:49,   0.2,  8.2,  193,+14.3,  96.1,    0.3,  +15.0,  +15.6,  +14.7,+1100.00,43
12/09/2011,00:26:07,   0.2,  6.1,  175,+14.3,  96.1,    0.2,  +15.0,  +15.6,  +14.7,+1100.00,3A
12/09/2011,00:26:33,   0.2,  3.9,  191,+14.3,  96.1,    0.2,  +15.0,  +15.5,  +14.8,+1100.00,3C
12/09/2011,00:26:51,   0.2,  3.6,  168,+14.3,  96.1,    0.2,  +14.9,  +15.5,  +14.7,+1100.00,44
12/09/2011,00:27:09,   0.2,  6.9,  183,+14.4,  96.1,    0.1,  +14.9,  +15.6,  +14.7,+1100.00,4C
12/09/2011,00:27:27,   0.2,  5.2,  180,+14.4,  96.0,    0.4,  +15.0,  +15.5,  +14.8,+1100.00,3B
12/09/2011,00:27:53,   0.2,  4.4,  188,+14.3,  96.1,    0.2,  +14.8,  +15.6,  +14.7,+1100.00,48
12/09/2011,00:28:11,   0.2,  3.7,  144,+14.3,  96.0,    0.2,  +15.0,  +15.5,  +14.8,+1100.00,35
12/09/2011,00:28:29,   0.2,  2.7,  191,+14.4,  96.1,    0.2,  +14.8,  +15.6,  +14.7,+1100.00,48
12/09/2011,00:28:54,   0.2,  2.3,  182,+14.4,  96.0,    0.1,  +14.8,  +15.6,  +14.7,+1100.00,40
12/09/2011,00:29:12,   0.2,  4.4,  162,+14.4,  96.0,    0.2,  +14.8,  +15.6,  +14.7,+1100.00,3D
12/09/2011,00:29:30,   0.2,  2.9,  168,+14.4,  96.1,    0.3,  +14.9,  +15.6,  +14.8,+1100.00,4A
12/09/2011,00:29:48,   0.2,  3.9,  152,+14.4,  96.1,    0.2,  +14.9,  +15.6,  +14.7,+1100.00,4B
12/09/2011,00:30:14,   0.2,  5.9,  162,+14.4,  96.1,    0.2,  +14.9,  +15.6,  +14.8,+1100.00,40
12/09/2011,00:30:32,   0.2,  2.5,  196,+14.4,  96.1,    0.2,  +14.9,  +15.7,  +14.7,+1100.00,40
12/09/2011,00:30:50,   0.2,  3.6,  183,+14.4,  96.0,    0.3,  +14.9,  +15.6,  +14.8,+1100.00,3E
12/09/2011,00:31:08,   0.2,  4.7,  213,+14.4,  96.1,    0.4,  +14.9,  +15.7,  +14.7,+1100.00,40
12/09/2011,00:31:34,   0.2,  5.8,  206,+14.4,  96.1,    0.1,  +14.9,  +15.6,  +14.8,+1100.00,40
12/09/2011,00:31:52,   0.2,  7.2,  208,+14.4,  96.1,    0.2,  +14.9,  +15.6,  +14.8,+1100.00,3F
12/09/2011,00:32:10,   0.2,  4.1,  232,+14.4,  96.1,    0.1,  +14.9,  +15.7,  +14.8,+1100.00,33
12/09/2011,00:32:28,   0.2,  4.8,  178,+14.4,  96.1,    0.3,  +14.9,  +15.6,  +14.8,+1100.00,4D
12/09/2011,00:32:54,   0.2,  4.3,  148,+14.4,  96.1,    0.2,  +14.8,  +15.6,  +14.8,+1100.00,42
12/09/2011,00:33:12,   0.2,  4.1,  185,+14.4,  96.2,    0.4,  +14.8,  +15.6,  +14.8,+1100.00,3F
12/09/2011,00:33:30,   0.2,  5.4,  176,+14.4,  96.2,    0.4,  +14.9,  +15.6,  +14.8,+1100.00,44
12/09/2011,00:33:47,   0.2,  5.6,  197,+14.4,  96.2,    0.2,  +14.9,  +15.6,  +14.8,+1100.00,4F
12/09/2011,00:34:13,   0.2,  3.7,  190,+14.4,  96.2,    0.3,  +14.9,  +15.5,  +14.8,+1100.00,41
12/09/2011,00:34:31,   0.2,  3.4,  191,+14.4,  96.2,    0.2,  +14.9,  +15.6,  +14.8,+1100.00,3F
12/09/2011,00:34:49,   0.2,  6.5,  175,+14.5,  96.2,    0.3,  +15.0,  +15.6,  +14.8,+1100.00,48
12/09/2011,00:35:07,   0.2,  6.0,  169,+14.4,  96.2,    0.4,  +14.9,  +15.6,  +14.8,+1100.00,49
12/09/2011,00:35:33,   0.2,  3.4,  180,+14.5,  96.2,    0.2,  +14.8,  +15.6,  +14.8,+1100.00,40
12/09/2011,00:35:51,   0.2,  3.2,  173,+14.5,  96.3,    0.5,  +14.9,  +15.6,  +14.8,+1100.00,45
12/09/2011,00:36:09,   0.2,  3.2,  159,+14.5,  96.2,    0.2,  +14.9,  +15.6,  +14.8,+1100.00,49
12/09/2011,00:36:27,   0.2,  3.2,  173,+14.5,  96.2,    0.2,  +14.9,  +15.6,  +14.9,+1100.00,46
12/09/2011,00:36:53,   0.2,  6.3,  198,+14.5,  96.2,    0.2,  +14.9,  +15.6,  +14.8,+1100.00,4F
12/09/2011,00:37:11,   0.2,  4.0,  184,+14.5,  96.2,    0.2,  +15.0,  +15.5,  +14.9,+1100.00,38
12/09/2011,00:37:29,   0.2,  5.5,  181,+14.5,  96.3,    0.2,  +14.8,  +15.6,  +14.8,+1100.00,4C
12/09/2011,00:37:54,   0.2,  2.7,  197,+14.5,  96.2,    0.1,  +14.9,  +15.6,  +14.9,+1100.00,50
12/09/2011,00:38:12,   0.2,  6.2,  193,+14.5,  96.2,    0.1,  +15.0,  +15.5,  +14.9,+1100.00,3D
12/09/2011,00:38:30,   0.2,  5.3,  198,+14.5,  96.3,    0.4,  +14.9,  +15.6,  +14.8,+1100.00,4E
12/09/2011,00:38:48,   0.2,  3.0,  174,+14.5,  96.3,    0.3,  +14.9,  +15.5,  +14.9,+1100.00,4B
12/09/2011,00:39:14,   0.2,  4.7,  185,+14.5,  96.2,    0.3,  +14.9,  +15.6,  +14.9,+1100.00,4F
12/09/2011,00:39:32,   0.2,  4.0,  175,+14.6,  96.3,    0.2,  +14.9,  +15.6,  +14.9,+1100.00,48
12/09/2011,00:39:50,   0.2,  4.3,  174,+14.6,  96.3,    0.3,  +15.0,  +15.6,  +14.9,+1100.00,43
12/09/2011,00:40:08,   0.2,  6.8,  193,+14.6,  96.3,    0.4,  +14.8,  +15.7,  +14.9,+1100.00,4F
12/09/2011,00:40:34,   0.2,  3.1,  185,+14.5,  96.3,    0.2,  +14.8,  +15.6,  +14.9,+1100.00,41
12/09/2011,00:40:52,   0.2,  1.9,  176,+14.6,  96.3,    0.3,  +14.8,  +15.7,  +14.9,+1100.00,4A
12/09/2011,00:41:10,   0.2,  6.0,  185,+14.6,  96.3,    0.4,  +14.8,  +15.6,  +14.9,+1100.00,41
12/09/2011,00:41:27,   0.2,  7.5,  184,+14.6,  96.3,    0.2,  +14.9,  +15.6,  +14.9,+1100.00,4D
12/09/2011,00:41:53,   0.2,  3.8,  216,+14.6,  96.3,    0.1,  +14.8,  +15.6,  +14.9,+1100.00,45
12/09/2011,00:42:11,   0.2,  2.7,  196,+14.6,  96.3,    0.2,  +14.9,  +15.6,  +14.9,+1100.00,47
12/09/2011,00:42:29,   0.2,  4.5,  187,+14.6,  96.3,    0.3,  +14.9,  +15.6,  +14.9,+1100.00,51
12/09/2011,00:42:47,   0.2,  2.7,  253,+14.6,  96.3,    0.1,  +14.9,  +15.6,  +14.9,+1100.00,49
12/09/2011,00:43:13,   0.2,  5.2,  190,+14.6,  96.2,    0.2,  +15.0,  +15.6,  +15.0,+1100.00,31
12/09/2011,00:43:31,   0.2,  3.7,  176,+14.6,  96.3,    0.3,  +15.0,  +15.6,  +14.9,+1100.00,42
12/09/2011,00:43:49,   0.2,  4.1,  200,+14.6,  96.2,    0.2,  +14.8,  +15.7,  +14.9,+1100.00,40
12/09/2011,00:44:07,   0.2,  8.6,  176,+14.6,  96.2,    0.2,  +15.0,  +15.5,  +15.0,+1100.00,3F
12/09/2011,00:44:33,   0.2,  4.6,  202,+14.6,  96.3,    0.3,  +14.9,  +15.6,  +14.9,+1100.00,43
12/09/2011,00:44:51,   0.2,  2.4,  240,+14.7,  96.3,    0.4,  +14.9,  +15.7,  +14.9,+1100.00,44
12/09/2011,00:45:09,   0.2,  5.2,  180,+14.7,  96.3,    0.2,  +14.9,  +15.6,  +15.0,+1100.00,41
12/09/2011,00:45:27,   0.2,  3.5,  213,+14.7,  96.3,    0.3,  +14.9,  +15.6,  +14.9,+1100.00,48
12/09/2011,00:45:53,   0.2,  2.8,  145,+14.7,  96.3,    0.2,  +14.9,  +15.6,  +15.0,+1100.00,44
12/09/2011,00:46:11,   0.2,  3.7,  189,+14.7,  96.3,    0.2,  +15.0,  +15.5,  +15.0,+1100.00,3E
12/09/2011,00:46:29,   0.2,  2.1,  161,+14.7,  96.3,    0.2,  +15.0,  +15.6,  +15.0,+1100.00,37
12/09/2011,00:46:54,   0.2,  2.5,  212,+14.7,  96.2,    0.1,  +14.9,  +15.6,  +15.0,+1100.00,3C
12/09/2011,00:47:12,   0.2,  4.0,  156,+14.7,  96.2,    0.2,  +14.9,  +15.6,  +15.0,+1100.00,3C
12/09/2011,00:47:30,   0.2,  3.8,  209,+14.7,  96.3,    0.3,  +14.9,  +15.6,  +14.9,+1100.00,4C
12/09/2011,00:47:48,   0.2,  4.8,  189,+14.7,  96.3,    0.2,  +14.9,  +15.6,  +15.0,+1100.00,54
12/09/2011,00:48:14,   0.2,  3.2,  154,+14.7,  96.3,    0.5,  +14.9,  +15.6,  +15.0,+1100.00,42
12/09/2011,00:48:32,   0.4,  4.6,  166,+14.7,  96.3,    0.1,  +14.9,  +15.6,  +15.0,+1100.00,48
12/09/2011,00:48:50,   0.4,  6.8,  211,+14.7,  96.3,    0.3,  +14.8,  +15.7,  +14.9,+1100.00,4D
12/09/2011,00:49:07,   0.4,  3.8,  165,+14.7,  96.3,    0.3,  +14.9,  +15.6,  +15.0,+1100.00,4D
12/09/2011,00:49:33,   0.4,  5.3,  203,+14.7,  96.3,    0.5,  +14.9,  +15.6,  +15.0,+1100.00,44
12/09/2011,00:49:51,   0.4,  4.2,  163,+14.7,  96.3,    0.3,  +14.9,  +15.6,  +15.0,+1100.00,45
12/09/2011,00:50:09,   0.4,  4.1,  217,+14.8,  96.3,    0.4,  +15.0,  +15.6,  +15.0,+1100.00,39
12/09/2011,00:50:27,   0.4,  2.2,  180,+14.7,  96.3,    0.3,  +14.9,  +15.6,  +15.0,+1100.00,3D
12/09/2011,00:50:53,   0.4,  4.1,  172,+14.8,  96.3,    0.2,  +14.9,  +15.6,  +15.0,+1100.00,3E
12/09/2011,00:51:11,   0.4,  6.6,  174,+14.8,  96.3,    0.1,  +14.8,  +15.6,  +15.0,+1100.00,40
12/09/2011,00:51:29,   0.4,  2.7,  172,+14.8,  96.3,    0.2,  +14.8,  +15.6,  +14.9,+1100.00,4D
12/09/2011,00:51:54,   0.4,  2.1,  226,+14.8,  96.3,    0.1,  +14.9,  +15.5,  +15.0,+1100.00,3C
12/09/2011,00:52:12,   0.4,  7.3,  166,+14.8,  96.3,    0.3,  +14.8,  +15.7,  +15.0,+1100.00,44
12/09/2011,00:52:30,   0.4,  3.2,  203,+14.8,  96.4,    0.3,  +14.9,  +15.7,  +15.0,+1100.00,39
12/09/2011,00:52:48,   0.4,  2.7,  196,+14.8,  96.3,    0.1,  +14.9,  +15.6,  +15.1,+1100.00,4E
12/09/2011,00:53:14,   0.4,  2.5,  217,+14.8,  96.3,    0.1,  +14.9,  +15.6,  +15.0,+1100.00,3F
12/09/2011,00:53:32,   0.4,  2.5,  197,+14.8,  96.4,    0.1,  +15.0,  +15.5,  +15.1,+1100.00,3F
12/09/2011,00:53:50,   0.4,  4.4,  182,+14.8,  96.3,    0.2,  +14.9,  +15.6,  +15.0,+1100.00,42
12/09/2011,00:54:08,   0.4,  4.6,  201,+14.8,  96.3,    0.2,  +15.0,  +15.5,  +15.0,+1100.00,37
12/09/2011,00:54:33,   0.4,  4.2,  183,+14.8,  96.4,    0.1,  +14.9,  +15.6,  +15.1,+1100.00,44
12/09/2011,00:54:51,   0.4,  2.4,  127,+14.8,  96.4,    0.3,  +14.8,  +15.7,  +15.0,+1100.00,43
12/09/2011,00:55:09,   0.4,  5.0,  222,+14.8,  96.4,    0.2,  +15.0,  +15.5,  +15.1,+1100.00,39
12/09/2011,00:55:27,   0.4,  6.1,  192,+14.8,  96.4,    0.2,  +14.9,  +15.6,  +15.1,+1100.00,4A
12/09/2011,00:55:53,   0.4,  5.4,  194,+14.8,  96.4,    0.2,  +14.8,  +15.6,  +15.0,+1100.00,4B
12/09/2011,00:56:11,   0.4,  3.8,  199,+14.9,  96.4,    0.3,  +14.8,  +15.7,  +14.9,+1100.00,58
12/09/2011,00:56:29,   0.4,  3.3,  165,+14.8,  96.4,    0.2,  +14.9,  +15.6,  +15.0,+1100.00,4B
12/09/2011,00:56:47,   0.4,  4.0,  208,+14.9,  96.5,    0.4,  +14.9,  +15.6,  +15.0,+1100.00,4B
12/09/2011,00:57:13,   0.4,  5.3,  197,+14.9,  96.4,    0.2,  +14.9,  +15.6,  +15.0,+1100.00,4D
12/09/2011,00:57:31,   0.4,  5.0,  183,+14.9,  96.4,    0.3,  +14.9,  +15.6,  +15.0,+1100.00,46
12/09/2011,00:57:49,   0.4,  3.6,  176,+14.9,  96.5,    0.3,  +14.9,  +15.6,  +15.0,+1100.00,56
12/09/2011,00:58:07,   0.4,  3.5,  188,+14.9,  96.5,    0.2,  +14.8,  +15.7,  +15.0,+1100.00,52
12/09/2011,00:58:33,   0.4,  6.5,  167,+14.9,  96.5,    0.4,  +14.8,  +15.6,  +15.0,+1100.00,52
12/09/2011,00:58:51,   0.4,  7.0,  180,+14.9,  96.5,    0.4,  +15.0,  +15.6,  +15.1,+1100.00,43
12/09/2011,00:59:09,   0.4,  6.7,  178,+14.9,  96.5,    0.3,  +14.9,  +15.6,  +15.1,+1100.00,5B
12/09/2011,00:59:27,   0.4,  4.2,  185,+14.9,  96.5,    0.2,  +14.9,  +15.6,  +15.1,+1100.00,51
12/09/2011,00:59:53,   0.4,  4.3,  207,+14.9,  96.5,    0.2,  +14.9,  +15.5,  +15.1,+1100.00,4B
12/09/2011,01:00:11,   0.4,  2.3,  151,+15.0,  96.4,    0.2,  +14.9,  +15.5,  +15.1,+1100.00,2B
12/09/2011,01:00:29,   0.4,  6.1,  172,+15.0,  96.5,    0.2,  +14.9,  +15.6,  +15.1,+1100.00,3B
12/09/2011,01:00:54,   0.4,  6.0,  178,+15.0,  96.5,    0.1,  +14.8,  +15.6,  +15.1,+1100.00,3C
12/09/2011,01:01:12,   0.4,  3.4,  185,+15.0,  96.5,    0.3,  +14.9,  +15.6,  +15.1,+1100.00,39
12/09/2011,01:01:30,   0.4,  3.9,  195,+15.0,  96.5,    0.3,  +14.9,  +15.6,  +15.1,+1100.00,3F
12/09/2011,01:01:48,   0.4,  3.9,  191,+15.0,  96.5,    0.2,  +14.9,  +15.6,  +15.1,+1100.00,43
12/09/2011,01:02:14,   0.4,  1.9,  250,+15.0,  96.5,    0.1,  +14.9,  +15.6,  +15.1,+1100.00,36
12/09/2011,01:02:32,   0.4,  4.2,  196,+15.0,  96.5,    0.2,  +15.0,  +15.6,  +15.1,+1100.00,34
12/09/2011,01:02:50,   0.4,  3.6,  195,+15.0,  96.5,    0.5,  +14.9,  +15.6,  +15.1,+1100.00,41
12/09/2011,01:03:08,   0.4,  3.4,  228,+15.0,  96.5,    0.3,  +15.0,  +15.6,  +15.2,+1100.00,37
12/09/2011,01:03:34,   0.4,  5.2,  193,+15.0,  96.5,    0.1,  +14.9,  +15.6,  +15.1,+1100.00,3C
12/09/2011,01:03:52,   0.4,  6.1,  183,+15.0,  96.5,    0.2,  +14.9,  +15.6,  +15.2,+1100.00,3D
12/09/2011,01:04:10,   0.4,  3.6,  212,+15.0,  96.5,    0.4,  +14.9,  +15.6,  +15.1,+1100.00,34
12/09/2011,01:04:28,   0.4,  3.4,  199,+15.1,  96.5,    0.1,  +14.8,  +15.6,  +15.1,+1100.00,46
12/09/2011,01:04:54,   0.4,  6.2,  188,+15.1,  96.5,    0.2,  +15.0,  +15.6,  +15.2,+1100.00,3F
12/09/2011,01:05:12,   0.4,  4.4,  184,+15.1,  96.5,    0.2,  +14.9,  +15.6,  +15.2,+1100.00,3E
12/09/2011,01:05:30,   0.4,  2.6,  193,+15.1,  96.5,    0.5,  +14.9,  +15.6,  +15.1,+1100.00,40
12/09/2011,01:05:48,   0.4,  6.0,  181,+15.1,  96.4,    0.2,  +14.9,  +15.6,  +15.2,+1100.00,41
12/09/2011,01:06:14,   0.4,  7.2,  189,+15.1,  96.5,    0.2,  +14.8,  +15.6,  +15.2,+1100.00,46
12/09/2011,01:06:32,   0.4,  3.2,  166,+15.1,  96.5,    0.3,  +14.9,  +15.6,  +15.2,+1100.00,3F
12/09/2011,01:06:50,   0.4,  2.5,  194,+15.1,  96.4,    0.2,  +14.9,  +15.6,  +15.2,+1100.00,40
12/09/2011,01:07:07,   0.4,  3.3,  205,+15.1,  96.4,    0.2,  +15.0,  +15.5,  +15.2,+1100.00,32
12/09/2011,01:07:33,   0.4,  6.8,  204,+15.1,  96.4,    0.1,  +14.8,  +15.6,  +15.2,+1100.00,3F
12/09/2011,01:07:51,   0.4,  4.6,  174,+15.2,  96.4,    0.2,  +15.0,  +15.5,  +15.3,+1100.00,3C
12/09/2011,01:08:09,   0.4,  3.2,  193,+15.2,  96.4,    0.4,  +15.0,  +15.6,  +15.2,+1100.00,3E
12/09/2011,01:08:27,   0.4,  9.5,  192,+15.2,  96.4,    0.1,  +14.8,  +15.6,  +15.3,+1100.00,4B
12/09/2011,01:08:53,   0.4,  7.6,  182,+15.2,  96.4,    0.2,  +15.0,  +15.5,  +15.3,+1100.00,41
12/09/2011,01:09:11,   0.4,  5.6,  210,+15.2,  96.5,    0.4,  +14.9,  +15.6,  +15.2,+1100.00,3D
12/09/2011,01:09:29,   0.4,  3.0,  204,+15.2,  96.5,    0.2,  +15.0,  +15.5,  +15.3,+1100.00,37
12/09/2011,01:09:47,   0.4,  4.1,  202,+15.3,  96.5,    0.1,  +14.8,  +15.6,  +15.3,+1100.00,3F
12/09/2011,01:10:13,   0.4,  7.0,  209,+15.2,  96.4,    0.2,  +14.9,  +15.6,  +15.3,+1100.00,39
12/09/2011,01:10:31,   0.4,  5.3,  227,+15.3,  96.5,    0.5,  +14.9,  +15.6,  +15.2,+1100.00,3E
12/09/2011,01:10:49,   0.4,  3.6,  194,+15.3,  96.4,    0.1,  +14.9,  +15.6,  +15.3,+1100.00,47
12/09/2011,01:11:07,   0.4,  3.1,  200,+15.3,  96.4,    0.1,  +14.9,  +15.6,  +15.3,+1100.00,31
12/09/2011,01:11:33,   0.4,  4.3,  193,+15.3,  96.4,    0.2,  +14.9,  +15.5,  +15.3,+1100.00,3E
12/09/2011,01:11:51,   0.4,  3.0,  203,+15.3,  96.4,    0.3,  +14.9,  +15.6,  +15.3,+1100.00,34
12/09/2011,01:12:09,   0.4,  4.0,  192,+15.3,  96.4,    0.3,  +15.0,  +15.5,  +15.4,+1100.00,38
12/09/2011,01:12:34,   0.4,  7.6,  186,+15.3,  96.4,    0.5,  +14.9,  +15.5,  +15.4,+1100.00,4C
12/09/2011,01:12:52,   0.4,  5.1,  185,+15.3,  96.4,    0.5,  +14.8,  +15.6,  +15.4,+1100.00,44
12/09/2011,01:13:10,   0.4,  5.0,  208,+15.4,  96.4,    0.4,  +14.9,  +15.6,  +15.4,+1100.00,3B
12/09/2011,01:13:28,   0.4,  3.6,  170,+15.3,  96.4,    0.2,  +14.9,  +15.6,  +15.3,+1100.00,42
12/09/2011,01:13:54,   0.4,  5.9,  210,+15.3,  96.4,    0.1,  +14.9,  +15.5,  +15.4,+1100.00,40
12/09/2011,01:14:12,   0.4,  5.0,  153,+15.4,  96.4,    0.2,  +14.8,  +15.6,  +15.4,+1100.00,3A
12/09/2011,01:14:30,   0.4,  2.3,  224,+15.4,  96.4,    0.3,  +14.9,  +15.6,  +15.4,+1100.00,3B
12/09/2011,01:14:48,   0.4,  2.1,  183,+15.4,  96.4,    0.3,  +14.9,  +15.6,  +15.4,+1100.00,46
12/09/2011,01:15:13,   0.4,  3.6,  178,+15.4,  96.3,    0.3,  +15.0,  +15.5,  +15.4,+1100.00,3F
12/09/2011,01:15:31,   0.4,  0.9,  205,+15.4,  96.3,    0.4,  +14.8,  +15.6,  +15.4,+1100.00,3F
12/09/2011,01:15:49,   0.4,  3.1,  203,+15.4,  96.4,    0.5,  +14.9,  +15.6,  +15.4,+1100.00,44
12/09/2011,01:16:07,   0.4,  5.7,  179,+15.4,  96.3,    0.3,  +14.9,  +15.5,  +15.5,+1100.00,50
12/09/2011,01:16:33,   0.4,  5.0,  194,+15.4,  96.3,    0.2,  +14.9,  +15.6,  +15.4,+1100.00,44
12/09/2011,01:16:51,   0.4,  6.3,  162,+15.5,  96.4,    0.3,  +15.0,  +15.6,  +15.5,+1100.00,3F
12/09/2011,01:17:09,   0.4,  6.1,  179,+15.4,  96.4,    0.2,  +15.0,  +15.5,  +15.5,+1100.00,46
12/09/2011,01:17:34,   0.4,  4.7,  180,+15.5,  96.3,    0.2,  +14.9,  +15.6,  +15.5,+1100.00,49
12/09/2011,01:17:52,   0.4,  4.7,  200,+15.5,  96.4,    0.3,  +15.0,  +15.6,  +15.5,+1100.00,3C
12/09/2011,01:18:10,   0.4,  6.8,  196,+15.5,  96.4,    0.3,  +14.9,  +15.6,  +15.4,+1100.00,4F
12/09/2011,01:18:28,   0.4,  6.0,  204,+15.5,  96.3,    0.1,  +14.9,  +15.6,  +15.5,+1100.00,44
12/09/2011,01:18:54,   0.4,  3.2,  255,+15.5,  96.3,    0.5,  +14.8,  +15.6,  +15.5,+1100.00,4B
12/09/2011,01:19:12,   0.4,  3.2,  213,+15.5,  96.3,    0.2,  +14.8,  +15.7,  +15.5,+1100.00,3E
12/09/2011,01:19:30,   0.4,  4.9,  181,+15.5,  96.2,    0.1,  +14.8,  +15.6,  +15.5,+1100.00,47
12/09/2011,01:19:48,   0.4,  6.0,  189,+15.5,  96.2,    0.4,  +14.9,  +15.7,  +15.5,+1100.00,56
12/09/2011,01:20:14,   0.4,  5.0,  181,+15.5,  96.2,    0.1,  +14.9,  +15.6,  +15.5,+1100.00,3A
12/09/2011,01:20:32,   0.4,  6.7,  181,+15.5,  96.2,    0.2,  +14.9,  +15.5,  +15.5,+1100.00,42
12/09/2011,01:20:50,   0.4,  5.0,  190,+15.5,  96.2,    0.4,  +14.9,  +15.6,  +15.5,+1100.00,3D
12/09/2011,01:21:08,   0.4,  5.3,  154,+15.5,  96.1,    0.1,  +14.8,  +15.7,  +15.5,+1100.00,40
12/09/2011,01:21:34,   0.4,  6.1,  199,+15.6,  96.1,    0.4,  +14.9,  +15.6,  +15.5,+1100.00,4B
12/09/2011,01:21:52,   0.4,  3.6,  220,+15.6,  96.1,    0.3,  +14.9,  +15.6,  +15.5,+1100.00,3D
12/09/2011,01:22:10,   0.4,  5.1,  213,+15.6,  96.1,    0.2,  +14.9,  +15.6,  +15.5,+1100.00,36